CZ-6A DEB

Satellite information

Favourite Embed

Satellite Type and Status

DEBRISIN ORBIT

Key statistics

Satellite CZ-6A DEB at a glance.

Uptime

1082

Days in orbit

Revolutions

≈ 14.1

Per day

Orbit

SSO

Sun Synchronous Orbit

Inclination

98.8

Latest

Satellite identification and parameters

Extended collection of information and parameters for CZ-6A DEB.

Object identification

Identified? True

Debris? True

Object name: CZ-6A DEB

International designator: 2022-151AAW

Object number (NORAD): 55898

Object ID (CCSDS): 55898

Country: PEOPLES REPUBLIC OF CHINA (PRC)

Current information (Y/N): Y

RCS size: SMALL

Orbital parameters

Period: 101.883 minutes

Inclination: 98.8198 deg

SMA: 7225.963 km

Apoapsis: 888.744 km

Periapsis: 806.912 km

RAAN: 299.3329 deg

Eccentricy: 0.0056624

Argument of periapsis: 300.1445 deg

Mean anomaly: 59.4123 deg

Mean motion: 14.13380658 rev/day

Mean motion (dot): 0.00002082 rev/day2

B* drag term: 0.0011152 1/REarth

Two-line elements (TLE)

Creation date: Oct. 27, 2025, 6:36 a.m.

Reference frame: TEME

Reference center: EARTH

Epoch: Oct. 26, 2025, 10:36 p.m. UTC

TLE line 0: 0 CZ-6A DEB

TLE line 1: 1 55898U 22151AAW 25299.94174604 .00002082 00000-0 11152-2 0 9992

TLE line 2: 2 55898 98.8198 299.3329 0056624 300.1445 59.4123 14.13380658145943

Live tracking on map

Real-time ground track for satellite CZ-6A DEB.

In-orbit conjunctions

A list of the most updated potential collisions computed for object CZ-6A DEB.

Target Orbit TCA Probability of collision Miss distance Type
FENGYUN 1C DEB SSO 2025-08-26 06:40:57 0.000585242 68.0 (m) DEBRIS
GGSE 2 LEO 2025-04-29 01:52:47 0.0001136538 455.0 (m) PAYLOAD
CZ-6A DEB SSO 2025-03-21 19:13:32 0.0001628267 309.0 (m) DEBRIS
NOAA 11 SSO 2024-07-28 14:00:38 0.0005997118 401.0 (m) PAYLOAD

Associated space launch

Chinese satellite reported for atmospheric/ocean/environmental/spatial parameter research purposes, details TBD.

CZ-6A DEB was lifted into orbit during the mission ‘Long March 6A | Yunhai 3’, on board a Long March 6A space rocket.

The launch took place on Nov. 11, 2022, 10:52 p.m. from Launch Complex 9A.

For more information about the launch, click the button.

Launch to space Long March 6A | Yunhai 3
Long March 6A | Yunhai 3

Agency: N/A

Status: Launch Successful

Launch date: Nov. 11, 2022, 10:52 p.m. UTC

Rocket: Long March 6A

Launch pad: Launch Complex 9A

Location: Taiyuan Satellite Launch Center, People's Republic of China

...

Latest news about this satellite

There are no fresh news available about this satellite. Check back as we update our databases every day.


Newsletter sign-up

Weekly statistics, charts and insights to help you stay on top of the space industry.